Flag for Brazil Weather past 2 weeks in Porto Acre, Acre, Brazil

Now
86 °F

Scattered clouds.


Feels Like: 89 °F
Forecast: 69 / 93 °F
Wind: 7 mph from North

Location: Rio Branco Airport

Current Time: Jul 22, 2014 at 2:07:10 PM

Latest Report: Jul 22, 2014 at 12:00 PM


Visibility: N/A

Pressure: 29.95 "Hg

Humidity: 55%

Dew point: 68 °F

Location of Porto AcreLocation

Historic Weather in Porto Acre — Graph

°F

Porto Acre temperature yesterday

Maximum temperature yesterday: 88 °F (at 2:00 PM)
Minimum temperature yesterday: 63 °F (at 5:00 AM)
Average temperature yesterday: 75 °F

Past Weeks' High & Low Weather Summary

 TemperatureHumidityPressure
High91 °F (Jul 16, 1:00 PM)100% (Jul 8, 6:00 AM)30.18 "Hg (Jul 8, 6:00 AM)
Low59 °F (Jul 8, 6:00 AM)41% (Jul 18, 2:00 PM)29.89 "Hg (Jul 21, 2:00 PM)
Average72 °F79%30.02 "Hg
* Reported Jul 7 12:00 Noon — Jul 22 12:00 Noon, Porto Acre, Weather by CustomWeather, © 2014

Note: Actual official high and low records may vary slightly from our data, if they occured in-between our weather recording intervals... More about our weather records

Advertising

Porto Acre weather history for previous 24 hours

 ConditionsComfort  
Time TempWeatherWind HumidityBarometerVisibility
12:00 PM
Jul 22
86 °FScattered clouds.7 mph55%29.95 "HgN/A
11:00 AM84 °FScattered clouds.6 mph58%29.98 "HgN/A
10:00 AM84 °FScattered clouds.5 mph58%29.98 "HgN/A
9:00 AM81 °FSunny.5 mph66%30.01 "Hg10 mi
8:00 AM77 °FSunny.2 mph79%29.98 "Hg10 mi
7:00 AM72 °FSunny.No wind88%29.95 "Hg10 mi
6:00 AM66 °FClear.No wind94%29.92 "Hg10 mi
5:00 AM66 °FClear.No wind94%29.92 "Hg10 mi
4:00 AM66 °FClear.No wind94%29.92 "Hg10 mi
3:00 AM72 °FClear.No wind83%29.92 "Hg10 mi
2:00 AM70 °FClear.No wind94%29.92 "Hg10 mi
1:00 AM70 °FClear.No wind88%29.92 "Hg10 mi
12:00 AM70 °FClear.No wind94%29.95 "Hg10 mi
11:00 PM
Jul 21
70 °FClear.No wind94%29.95 "Hg10 mi
10:00 PM72 °FClear.No wind88%29.95 "Hg10 mi
9:00 PM72 °FClear.No wind88%29.95 "Hg10 mi
8:00 PM73 °FPassing clouds.No wind83%29.92 "HgN/A
7:00 PM73 °FPassing clouds.No wind83%29.92 "HgN/A
6:00 PM81 °FScattered clouds.2 mph66%29.89 "HgN/A
5:00 PM84 °FScattered clouds.5 mph55%29.89 "HgN/A
4:00 PM86 °FScattered clouds.6 mph55%29.89 "HgN/A
3:00 PM88 °FScattered clouds.2 mph49%29.89 "HgN/A
2:00 PM88 °FScattered clouds.5 mph52%29.89 "HgN/A
Weather by CustomWeather, © 2014

See weather overviewHow to use our weather pages